Location: ?????
(33.6267°N, 35.4675°E)
Time: 12:24:02
(UTC+00:00)

ERBS - Pass Details

Date: 12 November 2019
Orbit: 411 x 430 km, 57.0° (Epoch: 13 December)

Event Time Altitude Azimuth Distance (km) Brightness Sun altitude
Rises 16:04:09 0° 224° (SW) 2,327 6.9 -18.2°
Reaches altitude 10° 16:06:14 10° 227° (SW) 1,471 5.8 -18.7°
Maximum altitude 16:09:29 64° 310° (NW) 460 2.5 -19.3°
Enters shadow 16:10:06 50° 3° (N) 530 2.6 -19.5°
